owner,sensor,date,latitude,longitude,vertical_datum,wind_speed,wind_to_direction,wind_speed_of_gust,qcFlag 
TCOON,ioos:station:TCOON:003:1,2015-04-01T00:00:00Z,26.8015,-97.4706,0.0,9.3,133.0,10.3,'11111222,11111222,11111222' 
TCOON,ioos:station:TCOON:003:1,2015-04-01T00:06:00Z,26.8015,-97.4706,0.0,8.9,134.0,10.4,'11111222,11111222,11111222' 
TCOON,ioos:station:TCOON:003:1,2015-04-01T00:12:00Z,26.8015,-97.4706,0.0,8.9,134.0,10.4,'1111122,1111122,1111122' 
TCOON,ioos:station:TCOON:003:1,2015-04-01T00:18:00Z,26.8015,-97.4706,0.0,8.5,136.0,10.2,'11111222,11111222,11111222' 
TCOON,ioos:station:TCOON:003:1,2015-04-01T00:24:00Z,26.8015,-97.4706,0.0,8.3,140.0,9.8,'11111222,11111222,11111222' 
TCOON,ioos:station:TCOON:003:1,2015-04-01T00:30:00Z,26.8015,-97.4706,0.0,8.5,136.0,10.0,'11111222,11111222,11111222' 
TCOON,ioos:station:TCOON:003:1,2015-04-01T00:36:00Z,26.8015,-97.4706,0.0,8.3,134.0,9.7,'11111222,11111222,11111222' 
TCOON,ioos:station:TCOON:003:1,2015-04-01T00:42:00Z,26.8015,-97.4706,0.0,8.7,137.0,9.9,'11111222,11111222,11111222' 
TCOON,ioos:station:TCOON:003:1,2015-04-01T00:48:00Z,26.8015,-97.4706,0.0,8.9,135.0,9.8,'11111222,11111222,11111222' 
TCOON,ioos:station:TCOON:003:1,2015-04-01T00:54:00Z,26.8015,-97.4706,0.0,7.9,134.0,9.9,'11111222,11111222,11111222' 
TCOON,ioos:station:TCOON:003:1,2015-04-01T01:00:00Z,26.8015,-97.4706,0.0,7.9,135.0,10.1,'11111222,11111222,11111222' 
TCOON,ioos:station:TCOON:003:1,2015-04-01T01:06:00Z,26.8015,-97.4706,0.0,8.8,131.0,10.2,'11111222,11111222,11111222' 
TCOON,ioos:station:TCOON:003:1,2015-04-01T01:12:00Z,26.8015,-97.4706,0.0,8.8,131.0,10.2,'1111122,1111122,1111122' 
TCOON,ioos:station:TCOON:003:1,2015-04-01T01:18:00Z,26.8015,-97.4706,0.0,7.9,132.0,9.8,'11111222,11111222,11111222' 
TCOON,ioos:station:TCOON:003:1,2015-04-01T01:24:00Z,26.8015,-97.4706,0.0,8.1,131.0,9.0,'11111222,11111222,11111222' 
TCOON,ioos:station:TCOON:003:1,2015-04-01T01:30:00Z,26.8015,-97.4706,0.0,8.2,126.0,9.5,'11111222,11111222,11111222' 
TCOON,ioos:station:TCOON:003:1,2015-04-01T01:36:00Z,26.8015,-97.4706,0.0,7.5,126.0,9.1,'11111222,11111222,11111222' 
TCOON,ioos:station:TCOON:003:1,2015-04-01T01:42:00Z,26.8015,-97.4706,0.0,7.8,128.0,9.4,'11111222,11111222,11111222' 
TCOON,ioos:station:TCOON:003:1,2015-04-01T01:48:00Z,26.8015,-97.4706,0.0,8.0,123.0,8.9,'11111222,11111222,11111222' 
TCOON,ioos:station:TCOON:003:1,2015-04-01T01:54:00Z,26.8015,-97.4706,0.0,7.6,126.0,9.0,'11111222,11111222,11111222' 
TCOON,ioos:station:TCOON:003:1,2015-04-01T02:00:00Z,26.8015,-97.4706,0.0,7.1,128.0,8.1,'11111222,11111222,11111222' 
TCOON,ioos:station:TCOON:003:1,2015-04-01T02:06:00Z,26.8015,-97.4706,0.0,6.4,126.0,8.7,'11111222,11111222,11111222' 
TCOON,ioos:station:TCOON:003:1,2015-04-01T02:12:00Z,26.8015,-97.4706,0.0,6.4,126.0,8.7,'1111122,1111122,1111122' 
TCOON,ioos:station:TCOON:003:1,2015-04-01T02:18:00Z,26.8015,-97.4706,0.0,5.3,121.0,6.6,'11111222,11111222,11111222' 
TCOON,ioos:station:TCOON:003:1,2015-04-01T02:24:00Z,26.8015,-97.4706,0.0,5.3,120.0,6.4,'11111222,11111222,11111222' 
TCOON,ioos:station:TCOON:003:1,2015-04-01T02:30:00Z,26.8015,-97.4706,0.0,5.6,121.0,6.2,'11111222,11111222,11111222' 
TCOON,ioos:station:TCOON:003:1,2015-04-01T02:36:00Z,26.8015,-97.4706,0.0,5.5,126.0,6.4,'11111222,11111222,11111222' 
TCOON,ioos:station:TCOON:003:1,2015-04-01T02:42:00Z,26.8015,-97.4706,0.0,4.9,119.0,5.9,'11111222,11111222,11111222' 
TCOON,ioos:station:TCOON:003:1,2015-04-01T02:48:00Z,26.8015,-97.4706,0.0,5.3,120.0,5.9,'11111222,11111222,11111222' 
TCOON,ioos:station:TCOON:003:1,2015-04-01T02:54:00Z,26.8015,-97.4706,0.0,5.8,121.0,6.6,'11111222,11111222,11111222' 
TCOON,ioos:station:TCOON:003:1,2015-04-01T03:00:00Z,26.8015,-97.4706,0.0,5.6,122.0,6.3,'11111222,11111222,11111222' 
TCOON,ioos:station:TCOON:003:1,2015-04-01T03:06:00Z,26.8015,-97.4706,0.0,5.3,130.0,6.6,'11111222,11111222,11111222' 
TCOON,ioos:station:TCOON:003:1,2015-04-01T03:12:00Z,26.8015,-97.4706,0.0,5.7,128.0,6.5,'11111222,11111222,11111222' 
TCOON,ioos:station:TCOON:003:1,2015-04-01T03:18:00Z,26.8015,-97.4706,0.0,5.6,129.0,6.8,'11111222,11111222,11111222' 
TCOON,ioos:station:TCOON:003:1,2015-04-01T03:24:00Z,26.8015,-97.4706,0.0,5.6,129.0,6.8,'1111122,1111122,1111122' 
TCOON,ioos:station:TCOON:003:1,2015-04-01T03:30:00Z,26.8015,-97.4706,0.0,5.2,130.0,6.1,'11111222,11111222,11111222' 
TCOON,ioos:station:TCOON:003:1,2015-04-01T03:36:00Z,26.8015,-97.4706,0.0,5.6,126.0,6.3,'11111222,11111222,11111222' 
TCOON,ioos:station:TCOON:003:1,2015-04-01T03:42:00Z,26.8015,-97.4706,0.0,5.3,128.0,6.5,'11111222,11111222,11111222' 
TCOON,ioos:station:TCOON:003:1,2015-04-01T03:48:00Z,26.8015,-97.4706,0.0,5.5,125.0,6.7,'11111222,11111222,11111222' 
TCOON,ioos:station:TCOON:003:1,2015-04-01T03:54:00Z,26.8015,-97.4706,0.0,5.9,126.0,7.3,'11111222,11111222,11111222' 
TCOON,ioos:station:TCOON:003:1,2015-04-01T04:00:00Z,26.8015,-97.4706,0.0,6.4,127.0,7.3,'11111222,11111222,11111222' 
TCOON,ioos:station:TCOON:003:1,2015-04-01T04:06:00Z,26.8015,-97.4706,0.0,6.8,128.0,8.0,'11111222,11111222,11111222' 
TCOON,ioos:station:TCOON:003:1,2015-04-01T04:12:00Z,26.8015,-97.4706,0.0,7.3,131.0,8.1,'11111222,11111222,11111222' 
TCOON,ioos:station:TCOON:003:1,2015-04-01T04:18:00Z,26.8015,-97.4706,0.0,7.3,131.0,8.1,'1111122,1111122,1111122' 
TCOON,ioos:station:TCOON:003:1,2015-04-01T04:24:00Z,26.8015,-97.4706,0.0,7.3,133.0,8.6,'11111222,11111222,11111222' 
TCOON,ioos:station:TCOON:003:1,2015-04-01T04:30:00Z,26.8015,-97.4706,0.0,8.1,135.0,9.5,'11111222,11111222,11111222' 
TCOON,ioos:station:TCOON:003:1,2015-04-01T04:36:00Z,26.8015,-97.4706,0.0,8.2,135.0,9.8,'11111222,11111222,11111222' 
TCOON,ioos:station:TCOON:003:1,2015-04-01T04:42:00Z,26.8015,-97.4706,0.0,8.3,139.0,10.2,'11111222,11111222,11111222' 
TCOON,ioos:station:TCOON:003:1,2015-04-01T04:48:00Z,26.8015,-97.4706,0.0,9.2,138.0,10.3,'11111222,11111222,11111222' 
TCOON,ioos:station:TCOON:003:1,2015-04-01T04:54:00Z,26.8015,-97.4706,0.0,9.3,139.0,10.8,'11111222,11111222,11111222' 
TCOON,ioos:station:TCOON:003:1,2015-04-01T05:00:00Z,26.8015,-97.4706,0.0,9.4,143.0,11.7,'11111222,11111222,11111222' 
TCOON,ioos:station:TCOON:003:1,2015-04-01T05:06:00Z,26.8015,-97.4706,0.0,9.7,145.0,11.4,'11111222,11111222,11111222' 
TCOON,ioos:station:TCOON:003:1,2015-04-01T05:12:00Z,26.8015,-97.4706,0.0,9.8,145.0,10.6,'11111222,11111222,11111222' 
TCOON,ioos:station:TCOON:003:1,2015-04-01T05:18:00Z,26.8015,-97.4706,0.0,9.8,145.0,10.6,'1111122,1111122,1111122' 
TCOON,ioos:station:TCOON:003:1,2015-04-01T05:24:00Z,26.8015,-97.4706,0.0,9.8,147.0,11.5,'11111222,11111222,11111222' 
TCOON,ioos:station:TCOON:003:1,2015-04-01T05:30:00Z,26.8015,-97.4706,0.0,9.4,148.0,11.9,'11111222,11111222,11111222' 
TCOON,ioos:station:TCOON:003:1,2015-04-01T05:36:00Z,26.8015,-97.4706,0.0,9.6,147.0,12.3,'11111222,11111222,11111222' 
TCOON,ioos:station:TCOON:003:1,2015-04-01T05:42:00Z,26.8015,-97.4706,0.0,10.7,146.0,12.2,'11111222,11111222,11111222' 
TCOON,ioos:station:TCOON:003:1,2015-04-01T05:48:00Z,26.8015,-97.4706,0.0,10.1,148.0,12.4,'11111222,11111222,11111222' 
TCOON,ioos:station:TCOON:003:1,2015-04-01T05:54:00Z,26.8015,-97.4706,0.0,10.7,148.0,12.2,'11111222,11111222,11111222' 
TCOON,ioos:station:TCOON:003:1,2015-04-01T06:00:00Z,26.8015,-97.4706,0.0,10.3,149.0,12.4,'11111222,11111222,11111222' 
TCOON,ioos:station:TCOON:003:1,2015-04-01T06:06:00Z,26.8015,-97.4706,0.0,10.3,152.0,13.2,'11111222,11111222,11111222' 
TCOON,ioos:station:TCOON:003:1,2015-04-01T06:12:00Z,26.8015,-97.4706,0.0,11.0,153.0,12.6,'11111222,11111222,11111222' 
TCOON,ioos:station:TCOON:003:1,2015-04-01T06:18:00Z,26.8015,-97.4706,0.0,11.2,157.0,13.1,'11111222,11111222,11111222' 
TCOON,ioos:station:TCOON:003:1,2015-04-01T06:24:00Z,26.8015,-97.4706,0.0,12.1,155.0,14.2,'11111222,11111222,11111222' 
TCOON,ioos:station:TCOON:003:1,2015-04-01T06:30:00Z,26.8015,-97.4706,0.0,11.1,155.0,13.8,'11111222,11111222,11111222' 
TCOON,ioos:station:TCOON:003:1,2015-04-01T06:36:00Z,26.8015,-97.4706,0.0,12.1,160.0,13.8,'11111222,11111222,11111222' 
TCOON,ioos:station:TCOON:003:1,2015-04-01T06:42:00Z,26.8015,-97.4706,0.0,11.4,159.0,13.1,'11111222,11111222,11111222' 
TCOON,ioos:station:TCOON:003:1,2015-04-01T06:48:00Z,26.8015,-97.4706,0.0,10.5,159.0,13.2,'11111222,11111222,11111222' 
TCOON,ioos:station:TCOON:003:1,2015-04-01T06:54:00Z,26.8015,-97.4706,0.0,11.5,165.0,14.4,'11111222,11111222,11111222' 
TCOON,ioos:station:TCOON:003:1,2015-04-01T07:00:00Z,26.8015,-97.4706,0.0,11.3,165.0,14.0,'11111222,11111222,11111222' 
TCOON,ioos:station:TCOON:003:1,2015-04-01T07:06:00Z,26.8015,-97.4706,0.0,11.3,165.0,14.0,'1111122,1111122,1111122' 
TCOON,ioos:station:TCOON:003:1,2015-04-01T07:12:00Z,26.8015,-97.4706,0.0,11.9,161.0,14.0,'11111222,11111222,11111222' 
TCOON,ioos:station:TCOON:003:1,2015-04-01T07:18:00Z,26.8015,-97.4706,0.0,11.8,160.0,13.8,'11111222,11111222,11111222' 
TCOON,ioos:station:TCOON:003:1,2015-04-01T07:24:00Z,26.8015,-97.4706,0.0,10.7,161.0,13.1,'11111222,11111222,11111222' 
TCOON,ioos:station:TCOON:003:1,2015-04-01T07:30:00Z,26.8015,-97.4706,0.0,11.6,159.0,13.7,'11111222,11111222,11111222' 
TCOON,ioos:station:TCOON:003:1,2015-04-01T07:36:00Z,26.8015,-97.4706,0.0,11.1,157.0,13.5,'11111222,11111222,11111222' 
TCOON,ioos:station:TCOON:003:1,2015-04-01T07:42:00Z,26.8015,-97.4706,0.0,11.3,160.0,12.9,'11111222,11111222,11111222' 
TCOON,ioos:station:TCOON:003:1,2015-04-01T07:48:00Z,26.8015,-97.4706,0.0,10.5,157.0,12.3,'11111222,11111222,11111222' 
TCOON,ioos:station:TCOON:003:1,2015-04-01T07:54:00Z,26.8015,-97.4706,0.0,9.6,157.0,11.6,'11111222,11111222,11111222' 
TCOON,ioos:station:TCOON:003:1,2015-04-01T08:00:00Z,26.8015,-97.4706,0.0,8.7,165.0,11.0,'11111222,11111222,11111222' 
TCOON,ioos:station:TCOON:003:1,2015-04-01T08:06:00Z,26.8015,-97.4706,0.0,10.1,170.0,12.2,'11111222,11111222,11111222' 
TCOON,ioos:station:TCOON:003:1,2015-04-01T08:12:00Z,26.8015,-97.4706,0.0,10.8,174.0,13.6,'11111222,11111222,11111222' 
TCOON,ioos:station:TCOON:003:1,2015-04-01T08:18:00Z,26.8015,-97.4706,0.0,10.8,174.0,13.6,'1111122,1111122,1111122' 
TCOON,ioos:station:TCOON:003:1,2015-04-01T08:24:00Z,26.8015,-97.4706,0.0,9.1,183.0,11.1,'11111222,11111222,11111222' 
TCOON,ioos:station:TCOON:003:1,2015-04-01T08:30:00Z,26.8015,-97.4706,0.0,8.4,180.0,10.4,'11111222,11111222,11111222' 
TCOON,ioos:station:TCOON:003:1,2015-04-01T08:36:00Z,26.8015,-97.4706,0.0,8.3,179.0,9.6,'11111222,11111222,11111222' 
TCOON,ioos:station:TCOON:003:1,2015-04-01T08:42:00Z,26.8015,-97.4706,0.0,8.4,175.0,10.1,'11111222,11111222,11111222' 
TCOON,ioos:station:TCOON:003:1,2015-04-01T08:48:00Z,26.8015,-97.4706,0.0,8.1,179.0,9.7,'11111222,11111222,11111222' 
TCOON,ioos:station:TCOON:003:1,2015-04-01T08:54:00Z,26.8015,-97.4706,0.0,8.2,179.0,10.1,'11111222,11111222,11111222' 
TCOON,ioos:station:TCOON:003:1,2015-04-01T09:00:00Z,26.8015,-97.4706,0.0,8.4,180.0,9.5,'11111222,11111222,11111222' 
TCOON,ioos:station:TCOON:003:1,2015-04-01T09:06:00Z,26.8015,-97.4706,0.0,7.8,179.0,8.9,'11111222,11111222,11111222' 
TCOON,ioos:station:TCOON:003:1,2015-04-01T09:12:00Z,26.8015,-97.4706,0.0,8.0,176.0,9.4,'11111222,11111222,11111222' 
TCOON,ioos:station:TCOON:003:1,2015-04-01T09:18:00Z,26.8015,-97.4706,0.0,7.9,176.0,9.5,'11111222,11111222,11111222' 
TCOON,ioos:station:TCOON:003:1,2015-04-01T09:24:00Z,26.8015,-97.4706,0.0,7.7,180.0,8.7,'11111222,11111222,11111222' 
TCOON,ioos:station:TCOON:003:1,2015-04-01T09:30:00Z,26.8015,-97.4706,0.0,7.7,180.0,8.7,'1111122,1111122,1111122' 
TCOON,ioos:station:TCOON:003:1,2015-04-01T09:36:00Z,26.8015,-97.4706,0.0,6.4,185.0,7.6,'11111222,11111222,11111222' 
TCOON,ioos:station:TCOON:003:1,2015-04-01T09:42:00Z,26.8015,-97.4706,0.0,6.2,182.0,7.4,'11111222,11111222,11111222' 
TCOON,ioos:station:TCOON:003:1,2015-04-01T09:48:00Z,26.8015,-97.4706,0.0,6.8,180.0,7.6,'11111222,11111222,11111222' 
TCOON,ioos:station:TCOON:003:1,2015-04-01T09:54:00Z,26.8015,-97.4706,0.0,6.7,185.0,7.8,'11111222,11111222,11111222' 
TCOON,ioos:station:TCOON:003:1,2015-04-01T10:00:00Z,26.8015,-97.4706,0.0,6.9,182.0,7.9,'11111222,11111222,11111222' 
TCOON,ioos:station:TCOON:003:1,2015-04-01T10:06:00Z,26.8015,-97.4706,0.0,7.2,178.0,8.1,'11111222,11111222,11111222' 
TCOON,ioos:station:TCOON:003:1,2015-04-01T10:12:00Z,26.8015,-97.4706,0.0,6.2,173.0,7.7,'11111222,11111222,11111222' 
TCOON,ioos:station:TCOON:003:1,2015-04-01T10:18:00Z,26.8015,-97.4706,0.0,6.2,173.0,7.7,'1111122,1111122,1111122' 
TCOON,ioos:station:TCOON:003:1,2015-04-01T10:24:00Z,26.8015,-97.4706,0.0,7.9,152.0,9.2,'11111222,11111222,11111222' 
TCOON,ioos:station:TCOON:003:1,2015-04-01T10:30:00Z,26.8015,-97.4706,0.0,8.4,158.0,9.6,'11111222,11111222,11111222' 
TCOON,ioos:station:TCOON:003:1,2015-04-01T10:36:00Z,26.8015,-97.4706,0.0,9.0,151.0,10.0,'11111222,11111222,11111222' 
TCOON,ioos:station:TCOON:003:1,2015-04-01T10:42:00Z,26.8015,-97.4706,0.0,9.0,148.0,10.9,'11111222,11111222,11111222' 
TCOON,ioos:station:TCOON:003:1,2015-04-01T10:48:00Z,26.8015,-97.4706,0.0,8.8,162.0,10.1,'11111222,11111222,11111222' 
TCOON,ioos:station:TCOON:003:1,2015-04-01T10:54:00Z,26.8015,-97.4706,0.0,9.4,147.0,10.2,'11111222,11111222,11111222' 
TCOON,ioos:station:TCOON:003:1,2015-04-01T11:00:00Z,26.8015,-97.4706,0.0,9.6,140.0,11.4,'11111222,11111222,11111222' 
TCOON,ioos:station:TCOON:003:1,2015-04-01T11:06:00Z,26.8015,-97.4706,0.0,8.8,140.0,11.6,'11111222,11111222,11111222' 
TCOON,ioos:station:TCOON:003:1,2015-04-01T11:12:00Z,26.8015,-97.4706,0.0,8.8,140.0,11.6,'1111122,1111122,1111122' 
TCOON,ioos:station:TCOON:003:1,2015-04-01T11:18:00Z,26.8015,-97.4706,0.0,10.1,143.0,11.2,'11111222,11111222,11111222' 
TCOON,ioos:station:TCOON:003:1,2015-04-01T11:24:00Z,26.8015,-97.4706,0.0,9.6,150.0,10.9,'11111222,11111222,11111222' 
TCOON,ioos:station:TCOON:003:1,2015-04-01T11:30:00Z,26.8015,-97.4706,0.0,10.7,153.0,12.7,'11111222,11111222,11111222' 
TCOON,ioos:station:TCOON:003:1,2015-04-01T11:36:00Z,26.8015,-97.4706,0.0,10.5,153.0,12.4,'11111222,11111222,11111222' 
TCOON,ioos:station:TCOON:003:1,2015-04-01T11:42:00Z,26.8015,-97.4706,0.0,10.8,159.0,13.0,'11111222,11111222,11111222' 
TCOON,ioos:station:TCOON:003:1,2015-04-01T11:48:00Z,26.8015,-97.4706,0.0,10.5,160.0,12.1,'11111222,11111222,11111222' 
TCOON,ioos:station:TCOON:003:1,2015-04-01T11:54:00Z,26.8015,-97.4706,0.0,10.7,164.0,12.5,'11111222,11111222,11111222' 
TCOON,ioos:station:TCOON:003:1,2015-04-01T12:00:00Z,26.8015,-97.4706,0.0,10.2,165.0,11.6,'11111222,11111222,11111222' 
TCOON,ioos:station:TCOON:003:1,2015-04-01T12:06:00Z,26.8015,-97.4706,0.0,9.6,168.0,11.3,'11111222,11111222,11111222' 
TCOON,ioos:station:TCOON:003:1,2015-04-01T12:12:00Z,26.8015,-97.4706,0.0,9.6,168.0,11.3,'1111122,1111122,1111122' 
TCOON,ioos:station:TCOON:003:1,2015-04-01T12:18:00Z,26.8015,-97.4706,0.0,6.8,160.0,9.8,'11111222,11111222,11111222' 
TCOON,ioos:station:TCOON:003:1,2015-04-01T12:24:00Z,26.8015,-97.4706,0.0,9.6,166.0,10.9,'11111222,11111222,11111222' 
TCOON,ioos:station:TCOON:003:1,2015-04-01T12:30:00Z,26.8015,-97.4706,0.0,8.9,164.0,10.2,'11111222,11111222,11111222' 
TCOON,ioos:station:TCOON:003:1,2015-04-01T12:36:00Z,26.8015,-97.4706,0.0,7.4,164.0,9.1,'11111222,11111222,11111222' 
TCOON,ioos:station:TCOON:003:1,2015-04-01T12:42:00Z,26.8015,-97.4706,0.0,8.5,167.0,9.3,'11111222,11111222,11111222' 
TCOON,ioos:station:TCOON:003:1,2015-04-01T12:48:00Z,26.8015,-97.4706,0.0,10.2,165.0,11.3,'11111222,11111222,11111222' 
TCOON,ioos:station:TCOON:003:1,2015-04-01T12:54:00Z,26.8015,-97.4706,0.0,9.8,161.0,11.8,'11111222,11111222,11111222' 
TCOON,ioos:station:TCOON:003:1,2015-04-01T13:00:00Z,26.8015,-97.4706,0.0,10.1,147.0,11.3,'11111222,11111222,11111222' 
TCOON,ioos:station:TCOON:003:1,2015-04-01T13:06:00Z,26.8015,-97.4706,0.0,8.5,146.0,11.0,'11111222,11111222,11111222' 
TCOON,ioos:station:TCOON:003:1,2015-04-01T13:12:00Z,26.8015,-97.4706,0.0,7.8,132.0,10.1,'11111222,11111222,11111222' 
TCOON,ioos:station:TCOON:003:1,2015-04-01T13:18:00Z,26.8015,-97.4706,0.0,7.8,132.0,10.1,'1111122,1111122,1111122' 
TCOON,ioos:station:TCOON:003:1,2015-04-01T13:24:00Z,26.8015,-97.4706,0.0,6.0,165.0,8.7,'11111222,11111222,11111222' 
TCOON,ioos:station:TCOON:003:1,2015-04-01T13:30:00Z,26.8015,-97.4706,0.0,8.3,174.0,9.3,'11111222,11111222,11111222' 
TCOON,ioos:station:TCOON:003:1,2015-04-01T13:36:00Z,26.8015,-97.4706,0.0,6.5,188.0,9.3,'11111222,11111222,11111222' 
TCOON,ioos:station:TCOON:003:1,2015-04-01T13:42:00Z,26.8015,-97.4706,0.0,7.2,190.0,9.0,'11111222,11111222,11111222' 
TCOON,ioos:station:TCOON:003:1,2015-04-01T13:48:00Z,26.8015,-97.4706,0.0,6.3,185.0,7.6,'11111222,11111222,11111222' 
TCOON,ioos:station:TCOON:003:1,2015-04-01T13:54:00Z,26.8015,-97.4706,0.0,5.8,178.0,7.5,'11111222,11111222,11111222' 
TCOON,ioos:station:TCOON:003:1,2015-04-01T14:00:00Z,26.8015,-97.4706,0.0,4.8,173.0,7.0,'11111222,11111222,11111222' 
TCOON,ioos:station:TCOON:003:1,2015-04-01T14:06:00Z,26.8015,-97.4706,0.0,3.2,157.0,5.5,'11111222,11111222,11111222' 
TCOON,ioos:station:TCOON:003:1,2015-04-01T14:12:00Z,26.8015,-97.4706,0.0,5.7,123.0,6.6,'11111222,11111222,11111222' 
TCOON,ioos:station:TCOON:003:1,2015-04-01T14:18:00Z,26.8015,-97.4706,0.0,5.7,123.0,6.6,'1111122,1111122,1111122' 
TCOON,ioos:station:TCOON:003:1,2015-04-01T14:24:00Z,26.8015,-97.4706,0.0,8.5,115.0,9.6,'11111222,11111222,11111222' 
TCOON,ioos:station:TCOON:003:1,2015-04-01T14:30:00Z,26.8015,-97.4706,0.0,7.3,116.0,10.2,'11111222,11111222,11111222' 
TCOON,ioos:station:TCOON:003:1,2015-04-01T14:36:00Z,26.8015,-97.4706,0.0,6.5,129.0,8.0,'11111222,11111222,11111222' 
TCOON,ioos:station:TCOON:003:1,2015-04-01T14:42:00Z,26.8015,-97.4706,0.0,6.1,133.0,8.2,'11111222,11111222,11111222' 
TCOON,ioos:station:TCOON:003:1,2015-04-01T14:48:00Z,26.8015,-97.4706,0.0,5.7,139.0,7.3,'11111222,11111222,11111222' 
TCOON,ioos:station:TCOON:003:1,2015-04-01T14:54:00Z,26.8015,-97.4706,0.0,5.4,136.0,7.8,'11111222,11111222,11111222' 
TCOON,ioos:station:TCOON:003:1,2015-04-01T15:00:00Z,26.8015,-97.4706,0.0,5.2,129.0,6.2,'11111222,11111222,11111222' 
TCOON,ioos:station:TCOON:003:1,2015-04-01T15:06:00Z,26.8015,-97.4706,0.0,5.9,123.0,6.9,'11111222,11111222,11111222' 
TCOON,ioos:station:TCOON:003:1,2015-04-01T15:12:00Z,26.8015,-97.4706,0.0,5.3,119.0,6.4,'11111222,11111222,11111222' 
TCOON,ioos:station:TCOON:003:1,2015-04-01T15:18:00Z,26.8015,-97.4706,0.0,5.3,119.0,6.4,'1111122,1111122,1111122' 
TCOON,ioos:station:TCOON:003:1,2015-04-01T15:24:00Z,26.8015,-97.4706,0.0,4.8,126.0,5.4,'11111222,11111222,11111222' 
TCOON,ioos:station:TCOON:003:1,2015-04-01T15:30:00Z,26.8015,-97.4706,0.0,5.3,121.0,6.0,'11111222,11111222,11111222' 
TCOON,ioos:station:TCOON:003:1,2015-04-01T15:36:00Z,26.8015,-97.4706,0.0,5.4,121.0,5.9,'11111222,11111222,11111222' 
TCOON,ioos:station:TCOON:003:1,2015-04-01T15:42:00Z,26.8015,-97.4706,0.0,5.7,112.0,6.5,'11111222,11111222,11111222' 
TCOON,ioos:station:TCOON:003:1,2015-04-01T15:48:00Z,26.8015,-97.4706,0.0,6.5,110.0,7.2,'11111222,11111222,11111222' 
TCOON,ioos:station:TCOON:003:1,2015-04-01T15:54:00Z,26.8015,-97.4706,0.0,6.4,129.0,7.3,'11111222,11111222,11111222' 
TCOON,ioos:station:TCOON:003:1,2015-04-01T16:00:00Z,26.8015,-97.4706,0.0,6.3,131.0,7.5,'11111222,11111222,11111222' 
TCOON,ioos:station:TCOON:003:1,2015-04-01T16:06:00Z,26.8015,-97.4706,0.0,5.9,129.0,7.5,'11111222,11111222,11111222' 
TCOON,ioos:station:TCOON:003:1,2015-04-01T16:12:00Z,26.8015,-97.4706,0.0,7.1,136.0,8.5,'11111222,11111222,11111222' 
TCOON,ioos:station:TCOON:003:1,2015-04-01T16:18:00Z,26.8015,-97.4706,0.0,7.1,136.0,8.5,'1111122,1111122,1111122' 
TCOON,ioos:station:TCOON:003:1,2015-04-01T16:24:00Z,26.8015,-97.4706,0.0,5.9,146.0,8.0,'11111222,11111222,11111222' 
TCOON,ioos:station:TCOON:003:1,2015-04-01T16:30:00Z,26.8015,-97.4706,0.0,7.8,145.0,8.7,'11111222,11111222,11111222' 
TCOON,ioos:station:TCOON:003:1,2015-04-01T16:36:00Z,26.8015,-97.4706,0.0,7.2,143.0,8.6,'11111222,11111222,11111222' 
TCOON,ioos:station:TCOON:003:1,2015-04-01T16:42:00Z,26.8015,-97.4706,0.0,7.8,142.0,8.9,'11111222,11111222,11111222' 
TCOON,ioos:station:TCOON:003:1,2015-04-01T16:48:00Z,26.8015,-97.4706,0.0,7.3,140.0,9.4,'11111222,11111222,11111222' 
TCOON,ioos:station:TCOON:003:1,2015-04-01T16:54:00Z,26.8015,-97.4706,0.0,8.1,136.0,9.4,'11111222,11111222,11111222' 
TCOON,ioos:station:TCOON:003:1,2015-04-01T17:00:00Z,26.8015,-97.4706,0.0,7.8,136.0,10.3,'11111222,11111222,11111222' 
TCOON,ioos:station:TCOON:003:1,2015-04-01T17:06:00Z,26.8015,-97.4706,0.0,7.6,137.0,9.6,'11111222,11111222,11111222' 
TCOON,ioos:station:TCOON:003:1,2015-04-01T17:12:00Z,26.8015,-97.4706,0.0,8.6,136.0,9.7,'11111222,11111222,11111222' 
TCOON,ioos:station:TCOON:003:1,2015-04-01T17:18:00Z,26.8015,-97.4706,0.0,8.6,136.0,9.7,'1111122,1111122,1111122' 
TCOON,ioos:station:TCOON:003:1,2015-04-01T17:24:00Z,26.8015,-97.4706,0.0,7.3,139.0,8.7,'11111222,11111222,11111222' 
TCOON,ioos:station:TCOON:003:1,2015-04-01T17:30:00Z,26.8015,-97.4706,0.0,7.8,137.0,8.9,'11111222,11111222,11111222' 
TCOON,ioos:station:TCOON:003:1,2015-04-01T17:36:00Z,26.8015,-97.4706,0.0,8.6,146.0,10.3,'11111222,11111222,11111222' 
TCOON,ioos:station:TCOON:003:1,2015-04-01T17:42:00Z,26.8015,-97.4706,0.0,8.5,146.0,9.8,'11111222,11111222,11111222' 
TCOON,ioos:station:TCOON:003:1,2015-04-01T17:48:00Z,26.8015,-97.4706,0.0,8.4,149.0,9.4,'11111222,11111222,11111222' 
TCOON,ioos:station:TCOON:003:1,2015-04-01T17:54:00Z,26.8015,-97.4706,0.0,7.9,150.0,9.1,'11111222,11111222,11111222' 
TCOON,ioos:station:TCOON:003:1,2015-04-01T18:00:00Z,26.8015,-97.4706,0.0,8.1,156.0,9.4,'11111222,11111222,11111222' 
TCOON,ioos:station:TCOON:003:1,2015-04-01T18:06:00Z,26.8015,-97.4706,0.0,7.1,152.0,9.4,'11111222,11111222,11111222' 
TCOON,ioos:station:TCOON:003:1,2015-04-01T18:12:00Z,26.8015,-97.4706,0.0,7.1,150.0,8.7,'11111222,11111222,11111222' 
TCOON,ioos:station:TCOON:003:1,2015-04-01T18:18:00Z,26.8015,-97.4706,0.0,7.1,150.0,8.7,'1111122,1111122,1111122' 
TCOON,ioos:station:TCOON:003:1,2015-04-01T18:24:00Z,26.8015,-97.4706,0.0,6.4,144.0,8.6,'11111222,11111222,11111222' 
TCOON,ioos:station:TCOON:003:1,2015-04-01T18:30:00Z,26.8015,-97.4706,0.0,7.1,148.0,9.0,'11111222,11111222,11111222' 
TCOON,ioos:station:TCOON:003:1,2015-04-01T18:36:00Z,26.8015,-97.4706,0.0,8.5,147.0,10.0,'11111222,11111222,11111222' 
TCOON,ioos:station:TCOON:003:1,2015-04-01T18:42:00Z,26.8015,-97.4706,0.0,9.4,145.0,11.8,'11111222,11111222,11111222' 
TCOON,ioos:station:TCOON:003:1,2015-04-01T18:48:00Z,26.8015,-97.4706,0.0,9.3,146.0,12.0,'11111222,11111222,11111222' 
TCOON,ioos:station:TCOON:003:1,2015-04-01T18:54:00Z,26.8015,-97.4706,0.0,10.9,151.0,12.2,'11111222,11111222,11111222' 
TCOON,ioos:station:TCOON:003:1,2015-04-01T19:00:00Z,26.8015,-97.4706,0.0,11.0,154.0,12.5,'11111222,11111222,11111222' 
TCOON,ioos:station:TCOON:003:1,2015-04-01T19:06:00Z,26.8015,-97.4706,0.0,10.1,155.0,13.2,'11111222,11111222,11111222' 
TCOON,ioos:station:TCOON:003:1,2015-04-01T19:12:00Z,26.8015,-97.4706,0.0,10.8,155.0,12.0,'11111222,11111222,11111222' 
TCOON,ioos:station:TCOON:003:1,2015-04-01T19:18:00Z,26.8015,-97.4706,0.0,10.8,155.0,12.0,'1111122,1111122,1111122' 
TCOON,ioos:station:TCOON:003:1,2015-04-01T19:24:00Z,26.8015,-97.4706,0.0,10.1,157.0,13.1,'11111222,11111222,11111222' 
TCOON,ioos:station:TCOON:003:1,2015-04-01T19:30:00Z,26.8015,-97.4706,0.0,10.9,159.0,12.4,'11111222,11111222,11111222' 
TCOON,ioos:station:TCOON:003:1,2015-04-01T19:36:00Z,26.8015,-97.4706,0.0,11.3,158.0,13.2,'11111222,11111222,11111222' 
TCOON,ioos:station:TCOON:003:1,2015-04-01T19:42:00Z,26.8015,-97.4706,0.0,10.9,159.0,12.3,'11111222,11111222,11111222' 
TCOON,ioos:station:TCOON:003:1,2015-04-01T19:48:00Z,26.8015,-97.4706,0.0,10.0,158.0,12.9,'11111222,11111222,11111222' 
TCOON,ioos:station:TCOON:003:1,2015-04-01T19:54:00Z,26.8015,-97.4706,0.0,10.5,158.0,12.6,'11111222,11111222,11111222' 
TCOON,ioos:station:TCOON:003:1,2015-04-01T20:00:00Z,26.8015,-97.4706,0.0,10.3,157.0,12.4,'11111222,11111222,11111222' 
TCOON,ioos:station:TCOON:003:1,2015-04-01T20:06:00Z,26.8015,-97.4706,0.0,11.4,156.0,13.1,'11111222,11111222,11111222' 
TCOON,ioos:station:TCOON:003:1,2015-04-01T20:12:00Z,26.8015,-97.4706,0.0,10.7,156.0,12.6,'11111222,11111222,11111222' 